User: anonymous   Login
Location: El Bakhil
(32.7726°N, 5.5387°W)
Time: 17:31:36
(UTC+00:00)
Language:

Cosmos 1500 - Orbit

View from above orbital plane
View from above orbital plane
View from above satellite
View from above satellite

Ground track
Ground track

The orbit data is extracted from the following two-line orbital elements,

1 14372U 83099A   21129.19203840  .00000682  00000-0  30655-4 0  9997
2 14372  82.5175  16.4409 0014915 170.4390 308.6214 15.19279589 53238
Epoch (UTC): 09 May 2021 04:36:32
Eccentricity: 0.0014915
inclination: 82.5175°
perigee height: 498 km
apogee height: 518 km
right ascension of ascending node: 16.4409°
argument of perigee: 170.4390°
revolutions per day: 15.19279589
mean anomaly at epoch: 308.6214°
orbit number at epoch: 5323

The dashed part of the orbit path shows where the satellite is in the earth's shadow,  

DLR